User: anonymous   Login
Location: Vigo di Fassa
(46.4167°N, 11.6667°E)
Time: 05:05:04
(UTC+00:00)
Language:

Cosmos 1992 Rocket - Orbit

View from above orbital plane
View from above orbital plane
View from above satellite
View from above satellite

Ground track
Ground track

The orbit data is extracted from the following two-line orbital elements,

1 19770U 89005B   21134.57138294  .00000016  00000-0  13815-4 0  9995
2 19770  74.0441 298.3378 0004631  13.3304  52.1916 14.38871807691573
Epoch (UTC): 14 May 2021 13:42:47
Eccentricity: 0.0004631
inclination: 74.0441°
perigee height: 759 km
apogee height: 765 km
right ascension of ascending node: 298.3378°
argument of perigee: 13.3304°
revolutions per day: 14.38871807
mean anomaly at epoch: 52.1916°
orbit number at epoch: 69157

The dashed part of the orbit path shows where the satellite is in the earth's shadow,  

DLR